[[{"header":{"parameterUnit":"m.s-1","parameterCategory":1,"la1":30.2991,"la2":30.254,"lo1":-89.0895,"lo2":-89.0444,"dy":0.0017,"dx":0.0017,"nx":28,"ny":28,"refTime":"2025-02-06T09:00:00:Z","depth":0,"parameterNumber":2,"parameterNumberName":"U-component_of_WINDS"},"data":[0,0,0,0,0,0,0,0,0,0,0,0,0,0,0,0,0,0,0,0,0,0,0,0,0,0,0,0,0,0,0,0,0,0,0,0,0,0,0,0,0,0,0,0,0,0,0,0,0,0,0,0,0,0,0,0,0,0,-0.6379,-0.638,0,-0.6457,-0.6458,-0.6459,-0.6494,-0.6494,-0.6494,-0.6494,-0.6572,-0.6574,-0.6576,0,0,0,0,0,0,0,0,0,0,0,0,0,-0.6258,-0.626,-0.6379,-0.638,-0.6381,-0.6457,-0.6458,-0.6459,-0.6494,-0.6494,-0.6494,-0.6494,-0.6571,-0.6574,-0.6576,0,0,0,0,0,0,0,0,0,0,0,0,0,-0.6321,-0.6261,-0.6379,-0.6408,-0.6411,-0.6457,-0.6458,-0.646,-0.6494,-0.6494,-0.6494,-0.6494,-0.657,-0.6574,-0.6577,-0.6599,0,0,-0.6587,-0.6588,0,0,0,0,0,0,0,0,-0.6317,-0.6325,-0.6403,-0.6406,-0.641,-0.6466,-0.6444,-0.6506,-0.6494,-0.6463,-0.6494,-0.6494,-0.6537,-0.6543,-0.6558,-0.6603,-0.6606,-0.6587,-0.6589,-0.659,-0.6591,0,0,0,0,0,0,0,-0.6313,-0.6322,-0.641,-0.6404,-0.6408,-0.6416,-0.6425,-0.6456,-0.6499,-0.6465,-0.6468,-0.6477,-0.6539,-0.6554,-0.656,-0.6608,-0.6587,-0.659,-0.6592,-0.6593,-0.6676,-0.6676,0,0,0,0,0,0,-0.6304,-0.6318,-0.6408,-0.6412,-0.6362,-0.6418,-0.6428,-0.6448,-0.6499,-0.6507,-0.6477,-0.6478,-0.6549,-0.6556,-0.6563,-0.6593,-0.659,-0.6593,-0.6595,-0.6676,-0.6676,-0.6676,0,0,0,0,0,0,-0.6302,-0.6312,-0.6404,-0.6366,-0.6379,-0.6421,-0.6443,-0.645,-0.6465,-0.6508,-0.6516,-0.6485,-0.6549,-0.6558,-0.659,-0.6596,-0.6595,-0.6598,-0.6675,-0.6676,-0.6676,-0.6653,0,0,0,0,0,0,-0.6298,-0.6311,-0.632,-0.6366,-0.6381,-0.6431,-0.6443,-0.6451,-0.6471,-0.6474,-0.6518,-0.6525,-0.655,-0.6585,-0.6593,-0.66,-0.66,-0.6675,-0.6676,-0.6676,-0.6654,-0.6653,-0.6652,0,0,0,0,0,-0.6294,-0.631,-0.632,-0.6331,-0.6393,-0.6432,-0.644,-0.6468,-0.6471,-0.6481,-0.6508,-0.6524,-0.6594,-0.6588,-0.6598,-0.6606,-0.6675,-0.6676,-0.6676,-0.6654,-0.6653,-0.6652,0,0,0,0,0,0,-0.6263,-0.6317,-0.6329,-0.6361,-0.6391,-0.6437,-0.645,-0.6466,-0.6496,-0.6497,-0.6531,-0.654,-0.657,-0.6591,-0.6584,-0.6631,-0.6636,-0.6638,-0.6616,-0.6615,-0.6614,-0.6609,-0.6603,0,0,0,0,0,-0.626,-0.6287,-0.6332,-0.6356,-0.6371,-0.6408,-0.6426,-0.6445,-0.6478,-0.6491,-0.6521,-0.6551,-0.6581,-0.6599,-0.6628,-0.6657,-0.6667,-0.6667,-0.6666,-0.6665,-0.6667,-0.6684,-0.6685,-0.6678,-0.6678,-0.6678,0,0,-0.6254,-0.6287,-0.6302,-0.6351,-0.6377,-0.6404,-0.6419,-0.6446,-0.6467,-0.6495,-0.6528,-0.655,-0.6587,-0.6618,-0.6633,-0.6636,-0.6671,-0.6666,-0.6665,-0.6668,-0.6685,-0.6685,-0.6686,-0.6679,-0.6679,-0.6679,0,0,-0.6257,-0.6285,-0.6308,-0.6334,-0.6373,-0.6398,-0.6403,-0.6447,-0.6463,-0.6497,-0.6519,-0.6543,-0.6592,-0.6618,-0.6637,-0.665,-0.6665,-0.6658,-0.6654,-0.667,-0.667,-0.6671,-0.6676,-0.6677,-0.666,-0.666,-0.6659,0,-0.6245,-0.6287,-0.6318,-0.6344,-0.6365,-0.6393,-0.6416,-0.644,-0.6486,-0.65,-0.6503,-0.6566,-0.6593,-0.663,-0.6633,-0.6648,-0.6655,-0.6653,-0.6668,-0.6669,-0.667,-0.6675,-0.6676,-0.6658,-0.6659,-0.6659,-0.6659,0,-0.627,-0.6298,-0.6312,-0.6357,-0.638,-0.6405,-0.6439,-0.6458,-0.6475,-0.6499,-0.6532,-0.6565,-0.6602,-0.6612,-0.6629,-0.6652,-0.6653,-0.6662,-0.6667,-0.6669,-0.6674,-0.6676,-0.6657,-0.6657,-0.6658,-0.6658,0,0,-0.6256,-0.6318,-0.6322,-0.6343,-0.6389,-0.6411,-0.6437,-0.6474,-0.6489,-0.652,-0.6543,-0.6584,-0.6593,-0.6615,-0.6635,-0.6649,-0.6657,-0.6656,-0.6658,-0.6656,-0.6684,-0.6677,-0.6679,-0.6667,-0.6668,-0.6668,-0.6681,0,-0.6265,-0.6314,-0.6342,-0.6379,-0.6406,-0.6432,-0.6455,-0.6485,-0.6508,-0.6534,-0.6559,-0.6588,-0.6597,-0.6611,-0.6626,-0.6653,-0.6663,-0.6652,-0.6688,-0.6689,-0.6679,-0.6682,-0.6674,-0.6685,-0.6683,-0.6684,-0.6684,0,-0.6283,-0.6314,-0.6354,-0.6396,-0.6409,-0.6429,-0.6464,-0.6489,-0.6523,-0.6539,-0.6563,-0.6584,-0.6612,-0.6615,-0.6654,-0.6646,-0.6663,-0.6678,-0.6679,-0.6684,-0.6687,-0.6686,-0.6689,-0.6691,-0.6687,-0.6687,-0.6687,0,-0.6269,-0.6321,-0.6351,-0.6368,-0.6419,-0.6432,-0.6454,-0.6488,-0.6508,-0.6539,-0.6553,-0.6586,-0.6604,-0.663,-0.6658,-0.6658,-0.6694,-0.67,-0.6708,-0.6707,-0.6714,-0.6714,-0.672,-0.6725,-0.6725,-0.6725,-0.6725,0,-0.6277,-0.63,-0.6346,-0.6365,-0.6391,-0.6423,-0.6449,-0.6472,-0.6503,-0.6526,-0.6551,-0.6572,-0.6609,-0.6635,-0.6657,-0.6686,-0.6694,-0.6707,-0.6713,-0.6705,-0.6704,-0.6716,-0.6717,-0.6725,-0.6725,-0.6725,-0.6725,0,-0.6266,-0.6298,-0.6333,-0.6378,-0.639,-0.6407,-0.6446,-0.6465,-0.6489,-0.6518,-0.6527,-0.6565,-0.6597,-0.6628,-0.667,-0.6685,-0.6714,-0.6721,-0.6702,-0.6706,-0.6712,-0.6711,-0.6727,-0.6731,-0.6732,-0.6732,-0.6732,0,-0.6269,-0.6288,-0.6335,-0.6352,-0.6374,-0.6402,-0.6423,-0.6455,-0.6475,-0.6516,-0.653,-0.6564,-0.6592,-0.6642,-0.6673,-0.6705,-0.6714,-0.6717,-0.6719,-0.6711,-0.6714,-0.6713,-0.6715,-0.6716,-0.6716,-0.6716,-0.6716,0,-0.6271,-0.6286,-0.6315,-0.635,-0.6374,-0.6403,-0.6432,-0.6445,-0.6483,-0.6505,-0.6538,-0.656,-0.6603,-0.6636,-0.6673,-0.6694,-0.6711,-0.6715,-0.6719,-0.6711,-0.6699,-0.6706,-0.67,-0.6715,-0.6715,-0.6715,-0.6715,-0.6715,-0.6267,-0.6285,-0.6321,-0.6353,-0.6379,-0.6406,-0.6426,-0.6453,-0.6481,-0.652,-0.6537,-0.657,-0.6604,-0.6654,-0.6676,-0.6702,-0.6706,-0.6711,-0.6713,-0.6714,-0.6712,-0.6695,-0.6709,-0.6709,-0.6709,-0.6709,-0.6709,0,-0.6271,-0.6295,-0.6324,-0.6365,-0.639,-0.6404,-0.6438,-0.6457,-0.6486,-0.6517,-0.6545,-0.6583,-0.6615,-0.6649,-0.6683,-0.6697,-0.6706,-0.6705,-0.6704,-0.6709,-0.6706,-0.67,-0.6697,-0.6697,-0.6697,-0.6697,-0.6697,-0.6697,-0.6275,-0.6306,-0.6325,-0.6369,-0.6394,-0.6427,-0.6445,-0.647,-0.6494,-0.6536,-0.6563,-0.6585,-0.6617,-0.6653,-0.6683,-0.6692,-0.6704,-0.6701,-0.6712,-0.6708,-0.6709,-0.671,-0.6704,-0.6703,-0.6703,-0.6713,-0.6713,-0.6713]},{"header":{"parameterUnit":"m.s-1","parameterCategory":1,"la1":30.2991,"la2":30.254,"lo1":-89.0895,"lo2":-89.0444,"dy":0.0017,"dx":0.0017,"nx":28,"ny":28,"refTime":"2025-02-06T09:00:00:Z","depth":0,"parameterNumber":3,"parameterNumberName":"V-component_of_WINDS"},"data":[0,0,0,0,0,0,0,0,0,0,0,0,0,0,0,0,0,0,0,0,0,0,0,0,0,0,0,0,0,0,0,0,0,0,0,0,0,0,0,0,0,0,0,0,0,0,0,0,0,0,0,0,0,0,0,0,0,0,2.6156,2.6157,0,2.6303,2.6305,2.6306,2.6338,2.6337,2.6336,2.6335,2.6486,2.6491,2.6496,0,0,0,0,0,0,0,0,0,0,0,0,0,2.5904,2.5908,2.6156,2.6158,2.6159,2.6303,2.6305,2.6307,2.6339,2.6337,2.6336,2.6335,2.6484,2.649,2.6496,0,0,0,0,0,0,0,0,0,0,0,0,0,2.6028,2.591,2.6155,2.6193,2.6197,2.6302,2.6305,2.6307,2.6339,2.6337,2.6336,2.6334,2.6482,2.6489,2.6497,2.6575,0,0,2.652,2.6523,0,0,0,0,0,0,0,0,2.6021,2.6037,2.6185,2.619,2.6196,2.6301,2.6271,2.6397,2.6339,2.6285,2.6335,2.6333,2.6425,2.6437,2.6469,2.6582,2.6589,2.652,2.6525,2.6528,2.653,0,0,0,0,0,0,0,2.6012,2.6031,2.6214,2.6187,2.6194,2.6202,2.6218,2.6295,2.6362,2.629,2.6292,2.6309,2.6428,2.6461,2.6472,2.6591,2.652,2.6527,2.6531,2.6534,2.6778,2.678,0,0,0,0,0,0,2.5997,2.6024,2.6209,2.6218,2.6103,2.6208,2.6226,2.6269,2.6362,2.6374,2.6311,2.631,2.6449,2.6464,2.6478,2.6578,2.6528,2.6535,2.6539,2.6776,2.6779,2.6781,0,0,0,0,0,0,2.5992,2.6013,2.6203,2.6122,2.6147,2.6214,2.6262,2.6272,2.6306,2.6377,2.639,2.6332,2.6449,2.6467,2.6551,2.6583,2.6538,2.6545,2.6774,2.6777,2.678,2.6776,0,0,0,0,0,0,2.5984,2.6011,2.6041,2.6122,2.6151,2.6274,2.6264,2.6276,2.6319,2.632,2.6401,2.6413,2.6449,2.654,2.6559,2.6593,2.6551,2.6771,2.6775,2.6779,2.6774,2.6779,2.6783,0,0,0,0,0,2.5975,2.6034,2.6043,2.6065,2.619,2.6276,2.6292,2.6332,2.6321,2.6352,2.6399,2.641,2.6576,2.6548,2.657,2.6606,2.677,2.6774,2.6778,2.6772,2.6778,2.6783,0,0,0,0,0,0,2.5954,2.6045,2.6056,2.6142,2.6201,2.6281,2.6322,2.6337,2.64,2.6398,2.6445,2.6463,2.6545,2.6584,2.6551,2.6688,2.6672,2.6681,2.666,2.6666,2.6671,2.666,2.6557,0,0,0,0,0,2.596,2.6022,2.6098,2.6167,2.6196,2.6254,2.6292,2.6318,2.6381,2.6406,2.6458,2.6519,2.6585,2.6627,2.6692,2.6779,2.6798,2.6815,2.6819,2.6823,2.683,2.6882,2.6891,2.6795,2.6795,2.6795,0,0,2.5972,2.6029,2.6065,2.6164,2.6213,2.6277,2.6274,2.6341,2.639,2.6416,2.65,2.654,2.6611,2.6697,2.6738,2.6732,2.6861,2.6828,2.6831,2.6837,2.6887,2.6896,2.6904,2.6798,2.6798,2.6797,0,0,2.6027,2.6076,2.614,2.6189,2.6263,2.6301,2.6316,2.6394,2.6422,2.6506,2.6529,2.6586,2.6698,2.6749,2.6789,2.6864,2.6878,2.6884,2.6908,2.6957,2.6965,2.6972,2.7001,2.701,2.6891,2.6891,2.6891,0,2.6033,2.613,2.6171,2.6238,2.6281,2.6309,2.6375,2.642,2.6511,2.6541,2.6533,2.6676,2.6725,2.6825,2.6843,2.6874,2.6894,2.6875,2.696,2.6968,2.6975,2.7003,2.7013,2.6891,2.6891,2.6891,2.6891,0,2.6134,2.6201,2.6244,2.6332,2.638,2.6446,2.6498,2.6542,2.6564,2.6603,2.6689,2.675,2.6828,2.6853,2.6874,2.6956,2.6951,2.6951,2.6937,2.6984,2.7011,2.7022,2.6892,2.6891,2.6891,2.6891,0,0,2.6181,2.6291,2.6307,2.6348,2.6432,2.6485,2.6552,2.6629,2.6667,2.6729,2.6788,2.6882,2.6884,2.6929,2.6957,2.7,2.7058,2.6995,2.6997,2.7006,2.7155,2.7156,2.7167,2.7067,2.7069,2.7071,2.7149,0,2.6248,2.637,2.6409,2.6511,2.6575,2.6602,2.6661,2.672,2.6758,2.6818,2.686,2.6928,2.6923,2.6951,2.6995,2.7042,2.7089,2.7036,2.7124,2.7127,2.7107,2.7181,2.7182,2.7253,2.716,2.7162,2.7163,0,2.6342,2.6407,2.6515,2.6593,2.6621,2.6673,2.6748,2.6804,2.6871,2.6897,2.6948,2.6973,2.7045,2.7025,2.7127,2.7091,2.7129,2.7157,2.7161,2.7172,2.7149,2.7196,2.7276,2.7288,2.718,2.7179,2.7178,0,2.6368,2.6481,2.6562,2.6596,2.6688,2.6725,2.6765,2.683,2.6874,2.6939,2.6969,2.7041,2.7081,2.7137,2.7181,2.7162,2.7279,2.7262,2.7303,2.7302,2.7328,2.7326,2.7418,2.7349,2.7349,2.7349,2.7349,0,2.644,2.6506,2.6575,2.6625,2.67,2.6744,2.6818,2.6859,2.6917,2.6976,2.7003,2.7058,2.7111,2.7173,2.7207,2.7288,2.7305,2.7328,2.7337,2.7327,2.7324,2.7354,2.7351,2.7352,2.7351,2.735,2.735,0,2.6482,2.6531,2.662,2.6701,2.6722,2.6774,2.6843,2.6893,2.6932,2.7007,2.7027,2.7089,2.7164,2.7212,2.7306,2.733,2.7418,2.7424,2.7396,2.74,2.7439,2.7436,2.7554,2.7573,2.749,2.749,2.7491,0,2.6525,2.6577,2.6663,2.6704,2.6745,2.6811,2.6857,2.6903,2.695,2.7031,2.7071,2.7147,2.7211,2.7328,2.7382,2.7455,2.7465,2.7501,2.7476,2.7465,2.7468,2.7465,2.7472,2.7506,2.7507,2.7507,2.7508,0,2.6598,2.662,2.6685,2.6759,2.6813,2.6873,2.6934,2.6966,2.7023,2.7074,2.7151,2.72,2.7297,2.7373,2.7451,2.7493,2.7511,2.7515,2.7529,2.752,2.7502,2.7515,2.7409,2.7512,2.7512,2.7512,2.7511,2.7511,2.6644,2.6692,2.6761,2.6833,2.6883,2.6939,2.6991,2.7037,2.7102,2.7185,2.7208,2.7289,2.7356,2.7463,2.7506,2.757,2.7566,2.7585,2.759,2.7595,2.7596,2.749,2.7584,2.7584,2.7584,2.7584,2.7583,0,2.6721,2.6766,2.6832,2.6916,2.6973,2.6984,2.7052,2.7099,2.717,2.7231,2.7293,2.7382,2.7456,2.7516,2.7593,2.7633,2.7643,2.7651,2.765,2.766,2.7595,2.7576,2.7642,2.7642,2.7642,2.7642,2.7642,2.7642,2.6767,2.685,2.688,2.6988,2.7033,2.7113,2.7151,2.7203,2.7253,2.7351,2.7413,2.7452,2.7513,2.7594,2.7663,2.7679,2.7707,2.7714,2.7732,2.767,2.7664,2.7658,2.7641,2.7719,2.7719,2.7792,2.7793,2.7793]}]]